Regional Weather Roundup
Issued by NWS Goodland, KS

Home | Current Version | Previous Version | Graphics & Text | Print | Product List | Glossary On
Versions: 1 2 3 4 5 6 7 8 9 10 11 12 13 14 15 16 17 18 19 20 21 22 23 24 25 26 27 28 29 30 31 32 33 34 35 36 37 38 39 40 41 42 43 44 45 46 47 48 49 50
000
ASUS43 KGLD 291259
RWRGLD

GOODLAND FORECAST AREA HOURLY WEATHER ROUNDUP
NATIONAL WEATHER SERVICE GOODLAND KS
700 AM MDT WED JUL 29 2015

...OFFICIAL OBSERVATIONS...

CITY           SKY/WX    TMP DP  RH WIND       PRES   REMARKS
GOODLAND KS    MOSUNNY   62  54  74 E5        30.28S
HILL CITY KS   CLOUDY    64  60  87 N3        30.26R
IMPERIAL NEB   MOSUNNY   58  50  75 CALM      30.30R
MCCOOK NEB     MOSUNNY   56  53  90 CALM      30.28R
AKRON CO       MOSUNNY   61  48  62 SE12      30.32S
BURLINGTON CO  MOSUNNY   63  53  70 E6        30.29F
LIMON CO       PTSUNNY   57  50  77 NE3       30.34S
$$

...UNOFFICIAL OBSERVATIONS...

CITY           SKY/WX    TMP DP  RH WIND       PRES   REMARKS
COLBY KS       SUNNY     64  59  82 CALM      30.30R
NORTON KS      MOSUNNY   61  55  82 CALM      30.27
SHARON SPRINGS   N/A     62  58  86 NE7         N/A
KIT CARSON CO    N/A     60  53  78 MISG        N/A
$$


USA.gov is the U.S. government's official web portal to all federal, state and local government web resources and services.